Regional Weather Roundup
Issued by NWS

Home | Current Version | Previous Version | Text Only | Print | Product List | Glossary Off
Versions: 1 2 3 4 5 6 7 8 9 10 11 12 13 14 15 16 17 18 19 20 21 22 23 24 25 26 27 28 29 30 31 32 33 34 35 36 37 38 39 40 41 42 43 44 45 46 47 48 49 50

000
ASUS45 KSLC 271110
RWRUT

UTAH REGIONAL WEATHER ROUNDUP
NATIONAL WEATHER SERVICE SALT LAKE CITY UT
500 AM MDT FRI MAR 27 2015

UTZ001>011-023>025-271200-

NORTHERN UTAH

CITY           SKY/WX    TMP DP  RH WIND       PRES   REMARKS
BRIGHAM CITY   CLEAR     37  32  82 N3        30.33F
HILL AFB       CLEAR     42  28  56 SE14      30.32F
LOGAN          CLEAR     34  31  88 CALM      30.33F
OGDEN          CLEAR     41  29  62 S9        30.31F
PROVO AIRPORT  CLEAR     36  27  69 CALM      30.35S
SALT LAKE CITY CLEAR     42  30  62 SE8       30.32S
VERNAL         CLEAR     37  23  56 CALM      30.29R
WENDOVER       CLEAR     43  27  52 E3        30.32S
HEBER CITY     CLEAR     30  23  74 E3        30.38R
WEST JORDAN    CLEAR     39  30  70 SW8       30.33S WCI  34

$$

UTZ012>022-026-027-271200-

SOUTHERN/CENTRAL UTAH

CITY           SKY/WX    TMP DP  RH WIND       PRES   REMARKS
BLANDING       CLEAR     41  20  43 N3        30.37S
BRYCE CANYON   CLEAR     27  24  89 CALM      30.40S
CEDAR CITY     CLEAR     33  25  72 CALM      30.32F
DELTA          CLEAR     33  26  74 CALM      30.33S
HANKSVILLE     CLEAR     32  18  55 CALM      30.30R
MILFORD        CLEAR     32  20  61 S7        30.33S WCI  26
MOAB/CYNLANDS  CLEAR     38  15  39 CALM      30.26S
PRICE          CLEAR     41  21  44 N5        30.30F
ST GEORGE      SUNNY     52  25  35 E5        30.25S
KANAB          CLEAR     32  23  69 NE5       30.33S WCI  27

$$

REGIONAL REPORTS     COLORADO/ARIZONA

CITY           SKY/WX    TMP DP  RH WIND       PRES   REMARKS
CRAIG, CO      CLEAR     29  26  89 SE3       30.34R
GRAND JUNCTION CLEAR     38  22  52 SE9       30.29S WCI  31
RIFLE          CLEAR     31  22  69 E3        30.34R
MONTROSE       CLEAR     35  23  61 S9        30.34S WCI  28
CORTEZ         CLEAR     29  18  63 E7        30.32S WCI  22
PAGE, AZ       CLEAR     50  20  30 SW6       30.26S
GRAND CANYON   PTCLDY    24  17  74 E3        30.36F
KINGMAN        CLEAR     49  23  36 CALM      30.20S
FLAGSTAFF      PTCLDY    27  16  63 CALM      30.36S

$$

REGIONAL REPORTS    NEVADA/IDAHO/WYOMING

CITY           SKY/WX    TMP DP  RH WIND       PRES   REMARKS
LAS VEGAS, NV  CLEAR     60  28  29 SW9       30.12S
ELY            CLEAR     31  20  63 S12       30.36S WCI  22
ELKO           CLEAR     36  27  69 E3        30.30F
POCATELLO, ID  CLEAR     33  29  85 N7        30.31S WCI  27
BURLEY         CLEAR     34  32  92 E3        30.27F
EVANSTON, WY   PTCLDY    33  24  69 S8        30.37S WCI  26
ROCK SPRINGS   CLEAR     38  28  67 SW17      30.30S WCI  28
KEMMERER       CLEAR     34  30  86 W9        30.36S WCI  26

$$


USA.gov is the U.S. government's official web portal to all federal, state and local government web resources and services.